#timestamp,LO_Frequency,Hit,StdDev 
1622044815.5,286046998.8,N
1622044835.3,286046997.0,N
1622044855.2,286046999.3,N
1622044875.0,286046999.0,N
1622044875.9,286046999.0,N
1622044895.8,286046996.9,N
1622044915.6,286046999.2,N
1622044935.4,286046996.7,N
1622044955.3,286046997.4,N
1622044975.1,286046997.9,N
1622044995.9,286046997.5,N
1622045015.7,286046996.8,N
1622045035.5,286046997.1,N
1622045055.4,286046999.4,N
1622045075.2,286046999.1,N
1622045095.0,286046999.2,N
1622045096.0,286046999.2,N
1622045115.8,286046996.7,N
1622045135.6,286046997.8,N
1622045155.5,286046996.7,N
1622045175.3,286046999.3,N
1622045195.1,286046998.7,N
1622045215.9,286046998.2,N
1622045235.7,286046999.0,N
1622045255.6,286046996.7,Y
1622045275.4,286047001.0,P
1622045295.2,286046998.6,N
1622045315.1,286046998.4,N
1622045316.0,286046998.4,N
1622045335.8,286046998.6,N
1622045355.7,286046996.7,Y
1622045375.5,286046999.1,P
1622045395.3,286046999.3,P
1622045415.2,286046999.3,P
1622045435.0,286046999.2,Y
1622045435.9,286046999.2,P
1622045455.8,286047000.8,P
1622045475.6,286047000.9,N
1622045495.4,286047000.4,N
1622045515.3,286046999.8,N
1622045535.1,286047000.0,N
1622045555.8,286047000.6,N
1622045575.7,286047000.4,N
1622045595.5,286047001.1,N
1622045615.4,286046998.2,N
1622045635.2,286046998.9,N
1622045655.0,286046998.2,N
1622045655.9,286046998.2,N
1622045675.8,286046998.7,N
1622045695.6,286046998.7,N
1622045715.4,286046998.3,N
1622045735.3,286046998.8,N
1622045785.2,286046999.0,E
1622045795.1,286046999.3,N
1622045796.0,286046999.3,P
1622045815.8,286046999.4,P
1622045835.7,286046998.4,Y
1622045855.5,286047000.8,P
1622045875.3,286047001.2,N
1622045895.2,286047000.8,N
1622045915.0,286046998.1,N
1622045915.9,286046998.1,N
1622045935.8,286047000.9,N
1622045955.6,286046998.1,N
1622045975.4,286046998.1,N
1622045995.3,286046998.1,N
1622046015.1,286047001.2,N
1622046035.8,286046998.8,N
1622046055.7,286047000.8,N
1622046075.5,286047001.2,N
1622046095.4,286046998.5,N
1622046115.2,286046998.4,N
1622046135.0,286046998.4,N
1622046135.9,286046998.4,N
1622046155.8,286046998.7,N
1622046175.6,286046998.9,N
1622046195.4,286046999.4,N
1622046215.3,286046999.0,N
1622046235.1,286046998.6,N
1622046255.9,286046998.4,N
1622046275.7,286046998.4,N
1622046295.5,286046998.7,N
1622046315.4,286046998.4,N
1622046335.2,286046998.6,N
1622046355.0,286046999.0,N
1622046356.0,286046999.0,N
1622046375.8,286046999.3,N
1622046395.6,286046998.6,N
1622046415.5,286046999.4,N
1622046435.3,286046996.5,Y
1622046455.1,286046998.2,P
1622046475.9,286046999.2,N
1622046495.7,286046998.4,P
1622046515.6,286047001.5,Y
1622046535.4,286047005.8,P
1622046555.2,286047003.4,N
1622046575.1,286047004.3,N
1622046576.0,286047004.3,N
1622046595.8,286047004.2,N
1622046615.7,286047004.0,N
1622046635.5,286047001.5,N
1622046655.3,286047002.1,N
1622046675.2,286046999.9,N
1622046695.0,286047000.7,N
1622046695.9,286047000.7,N
1622046715.7,286047000.7,N
1622046735.6,286047000.6,N
1622046755.4,286047000.2,N
1622046775.3,286047000.5,N
1622046795.1,286047000.4,N
1622046815.8,286047000.7,N
1622046835.7,286047000.5,N
1622046855.5,286047000.6,N
1622046875.4,286047000.6,N
1622046895.2,286046998.1,N
1622046915.0,286047000.9,N
1622046915.9,286047000.9,N
1622046935.8,286047000.5,N
1622046955.6,286047000.9,N
1622046975.4,286047000.6,N
1622046995.3,286047002.4,N
1622047015.1,286047000.7,N
1622047035.9,286047000.7,N
1622047055.7,286047001.0,N
1622047075.5,286046998.1,N
1622047095.4,286046998.5,N
1622047115.2,286047001.2,N
1622047135.0,286046998.4,N
1622047135.9,286046998.4,N
1622047155.8,286046998.4,N
1622047175.6,286046998.4,N
1622047195.5,286046998.9,N
1622047215.3,286046998.5,N
1622047235.1,286046998.8,N
1622047255.9,286046998.6,N
1622047275.7,286046998.5,N
1622047295.6,286047001.1,N
1622047315.4,286046998.3,N
1622047335.2,286046998.9,N
1622047355.1,286046998.6,N
1622047356.0,286046998.6,N
1622047375.8,286046998.8,N
1622047395.6,286046998.3,N
1622047415.5,286046999.0,N
1622047435.3,286046998.1,N
1622047455.2,286047001.0,N
1622047475.9,286047001.0,N
1622047495.7,286047000.9,N
1622047515.6,286047000.6,N
1622047535.4,286047000.3,N
1622047555.2,286046999.8,N
1622047575.1,286047002.8,N
1622047576.0,286047002.8,N
1622047595.8,286047002.3,N
1622047615.7,286047002.3,N
1622047635.5,286047001.9,N
1622047655.3,286047002.4,N
1622047675.2,286047001.4,N
1622047695.0,286047002.1,N
1622047695.9,286047002.1,N
1622047715.7,286047001.4,N
1622047735.6,286047001.7,N
1622047755.4,286047001.9,N
1622047775.3,286047004.0,N
1622047795.1,286047003.9,N
1622047815.8,286047004.0,N
1622047835.7,286047003.8,N
1622047855.5,286047003.8,N
1622047875.3,286047003.6,N
1622047895.2,286047003.9,N
1622047915.0,286047003.5,N
1622047915.9,286047003.5,N
1622047935.8,286047003.4,N
1622047955.6,286047004.2,N
1622047975.4,286047003.6,N
1622047995.3,286047005.6,Y
1622048015.1,286047001.9,P
1622048035.9,286047001.6,P
1622048055.7,286047002.0,P
1622048075.5,286047002.4,Y
1622048095.4,286047000.3,P
1622048115.2,286047000.8,N
1622048135.0,286047000.5,N
1622048135.9,286047000.5,N
1622048155.8,286047000.9,N
1622048175.6,286046999.7,N
1622048195.5,286047002.7,Y
1622048215.3,286047000.9,P
1622048235.1,286047000.5,P
1622048255.9,286047002.8,P
1622048275.7,286047000.5,N
1622048295.6,286047000.5,N
1622048315.4,286047000.9,N
1622048335.2,286047000.0,N
1622048355.1,286046999.9,N
1622048356.0,286046999.9,N
1622048375.8,286046999.8,N
1622048395.6,286047000.2,N
